Egilsstadir, Iceland

8:06 PM GMT on December 09, 2016 (GMT +0000)
Egilsstadir

Weather History for BIEG - January, 2013

Change the Weather History Date:

Thursday, January 10, 2013

  Actual Average Record
Temperature  
Mean Temperature 42 °F -  
Max Temperature 46 °F 34 °F 46 °F (2013)
Min Temperature 37 °F 23 °F 8 °F (2007)
Degree Days  
Heating Degree Days 24    
Moisture  
Dew Point 36 °F    
Average Humidity 79    
Maximum Humidity 93    
Minimum Humidity 70    
Precipitation  
Precipitation 0.00 in - - ()
Sea Level Pressure  
Sea Level Pressure 29.89 in    
Wind  
Wind Speed 12 mph ()    
Max Wind Speed 23 mph    
Max Gust Speed 40 mph    
Visibility 6.2 miles    
Events      
Averages and records for this station are not official NWS values.
T = Trace of Precipitation, MM = Missing Value Source: Averaged Metar Reports

Daily Weather History Graph

Daily Weather History Graph

Search for Another Location

Airport or City:

Trip Planner

Search our weather history database for the weather conditions in past years. The results will help you decide how hot, cold, wet, or windy it might be!

Date:

Astronomy

Jan. 10, 2013 Rise Set
Actual Time 10:51 AM GMT 3:19 PM GMT
Civil Twilight 9:33 AM GMT 4:37 PM GMT
Nautical Twilight 8:24 AM GMT 5:46 PM GMT
Astronomical Twilight 7:22 AM GMT 6:48 PM GMT
Moon 9:17 AM GMT (1/10) 2:16 PM GMT (1/10)
Length of Visible Light 7h 03m
Length of Day
4h 27m
Waning Crescent, 3% of the Moon is Illuminated
Jan 10
Waning Crescent
Jan 11
New
Jan 18
First Quarter
Jan 27
Full
Feb 3
Last Quarter

Hourly Weather History & Observations

Time (GMT) Temp. Windchill Dew Point Humidity Pressure Visibility Wind Dir Wind Speed Gust Speed Precip Events Conditions
12:00 AM 41.0 °F 31.6 °F 35.6 °F 81% 29.83 in 6.2 mi South 20.7 mph - N/A   Mostly Cloudy
1:00 AM 41.0 °F 33.1 °F 37.4 °F 87% 29.86 in 6.2 mi South 15.0 mph - N/A   Mostly Cloudy
2:00 AM 42.8 °F 36.6 °F 37.4 °F 81% 29.86 in 6.2 mi South 11.5 mph - N/A   Mostly Cloudy
3:00 AM 44.6 °F 38.8 °F 37.4 °F 76% 29.83 in 6.2 mi South 11.5 mph - N/A   Mostly Cloudy
4:00 AM 41.0 °F 34.3 °F 37.4 °F 87% 29.86 in 6.2 mi SSE 11.5 mph - N/A   Mostly Cloudy
5:00 AM 42.8 °F 34.5 °F 37.4 °F 81% 29.83 in 6.2 mi SSE 18.4 mph - N/A   Scattered Clouds
6:00 AM 42.8 °F 34.0 °F 37.4 °F 81% 29.83 in 6.2 mi SSE 20.7 mph - N/A   Scattered Clouds
7:00 AM 42.8 °F 36.6 °F 37.4 °F 81% 29.86 in 6.2 mi South 11.5 mph 23.0 mph N/A   Scattered Clouds
8:00 AM 46.4 °F 45.2 °F 37.4 °F 71% 29.86 in 6.2 mi Variable 3.5 mph - N/A   Mostly Cloudy
9:00 AM 41.0 °F 37.1 °F 33.8 °F 76% 29.89 in 6.2 mi Variable 5.8 mph - N/A   Scattered Clouds
10:00 AM 41.0 °F 33.5 °F 33.8 °F 76% 29.89 in 6.2 mi SSW 13.8 mph - N/A   Scattered Clouds
11:00 AM 42.8 °F 34.8 °F 33.8 °F 70% 29.89 in 6.2 mi South 17.3 mph 28.8 mph N/A   Scattered Clouds
12:00 PM 44.6 °F 35.9 °F 35.6 °F 71% 29.89 in 6.2 mi SW 23.0 mph 40.3 mph N/A   Scattered Clouds
1:00 PM 46.4 °F 42.4 °F 37.4 °F 71% 29.89 in 6.2 mi SW 8.1 mph 19.6 mph N/A   Scattered Clouds
2:00 PM 44.6 °F 40.2 °F 37.4 °F 76% 29.89 in 6.2 mi West 8.1 mph - N/A   Scattered Clouds
3:00 PM 37.4 °F 29.8 °F 35.6 °F 93% 29.89 in 6.2 mi SW 11.5 mph - N/A   Scattered Clouds
4:00 PM 44.6 °F 38.8 °F 35.6 °F 71% 29.89 in 6.2 mi SSW 11.5 mph - N/A   Scattered Clouds
5:00 PM 42.8 °F 36.6 °F 35.6 °F 76% 29.92 in 6.2 mi SSW 11.5 mph - N/A   Scattered Clouds
6:00 PM 42.8 °F 39.3 °F 35.6 °F 76% 29.92 in 6.2 mi Variable 5.8 mph - N/A   Scattered Clouds
7:00 PM 42.8 °F 36.6 °F 35.6 °F 76% 29.92 in 6.2 mi South 11.5 mph 23.0 mph N/A   Scattered Clouds
8:00 PM 41.0 °F 35.2 °F 37.4 °F 87% 29.95 in 6.2 mi South 9.2 mph 20.7 mph N/A   Scattered Clouds
9:00 PM 41.0 °F 35.8 °F 37.4 °F 87% 29.95 in 6.2 mi SSE 8.1 mph 19.6 mph N/A   Mostly Cloudy
10:00 PM 41.0 °F 33.1 °F 37.4 °F 87% 29.95 in 6.2 mi SSW 15.0 mph - N/A   Mostly Cloudy
11:00 PM 41.0 °F 35.2 °F 37.4 °F 87% 29.95 in 6.2 mi South 9.2 mph - N/A   Scattered Clouds